This is the latest recevied weather packets stored in our database for station/object KA1JKB. If no packets are shown the sender has not sent any weather packets the latest 10 day(s).
| Time | Temp. | Humidity | Pressure | Rain* | Wind** | Luminosity | Snow |
|---|---|---|---|---|---|---|---|
| 1777746948 | 9.44° C | 48% | 1014.7 hPa | 0 mm | - | 1038 W/m² | - |
| 1777746644 | 8.33° C | 48% | 1014.9 hPa | 0 mm | - | 704 W/m² | - |
| 1777746339 | 8.33° C | 49% | 1014.8 hPa | 0 mm | - | 278 W/m² | - |
| 1777746036 | 8.33° C | 48% | 1014.8 hPa | 0 mm | - | 290 W/m² | - |
| 1777745734 | 8.33° C | 49% | 1014.9 hPa | 0 mm | - | 297 W/m² | - |
| 1777745432 | 8.33° C | 47% | 1014.9 hPa | 0 mm | - | 331 W/m² | - |
| 1777745129 | 9.44° C | 47% | 1015.1 hPa | 0 mm | - | 427 W/m² | - |
| 1777744825 | 8.89° C | 48% | 1015.1 hPa | 0 mm | - | 916 W/m² | - |
| 1777744519 | 8.33° C | 50% | 1015.1 hPa | 0 mm | - | 356 W/m² | - |
| 1777744216 | 9.44° C | 46% | 1015.3 hPa | 0 mm | - | 326 W/m² | - |
| 1777743913 | 10° C | 46% | 1015 hPa | 0 mm | - | 353 W/m² | - |
| 1777743610 | 9.44° C | 51% | 1015.3 hPa | 0 mm | - | 1016 W/m² | - |
| 1777743307 | 8.33° C | 48% | 1015.1 hPa | 0 mm | - | 730 W/m² | - |
| 1777743005 | 8.33° C | 49% | 1015.2 hPa | 0 mm | - | 342 W/m² | - |
| 1777742702 | 8.89° C | 50% | 1015.3 hPa | 0 mm | - | 470 W/m² | - |
| 1777742398 | 7.78° C | 52% | 1015.3 hPa | 0 mm | - | 328 W/m² | - |
| 1777742093 | 7.22° C | 52% | 1015.6 hPa | 0 mm | - | 244 W/m² | - |
| 1777741791 | 7.78° C | 51% | 1015.5 hPa | 0 mm | - | 240 W/m² | - |
| 1777741488 | 7.78° C | 48% | 1015.2 hPa | 0 mm | - | 263 W/m² | - |
| 1777741183 | 7.78° C | 46% | 1015.3 hPa | 0 mm | - | 299 W/m² | - |
| 1777740881 | 8.33° C | 50% | 1015.4 hPa | 0 mm | - | 298 W/m² | - |
| 1777740578 | 8.89° C | 50% | 1015.3 hPa | 0 mm | - | 304 W/m² | - |
| 1777740274 | 8.33° C | 51% | 1015.6 hPa | 0 mm | - | 927 W/m² | - |
| 1777739971 | 7.78° C | 48% | 1015.5 hPa | 0 mm | - | 318 W/m² | - |
| 1777739667 | 7.78° C | 51% | 1015.6 hPa | 0 mm | - | 459 W/m² | - |
* Rain latest hour (hover to see other rain measurements)
** Current wind speed in m/s (hover to see current wind gust speed)